DLH4XK EDDF-EDDH

Flight info

Callsign DLH4XK
Flight time 0h 44m
Altitude 33000
Route MARUN3W/25C MARUN Y150 TOLGI DCT SAS/N0403F320 P605 NOLGO NOLGO6A
Aircraft A320/M-SDE2E3FGIJ1LORWXYZ/HB1

Departure

Time 2026-05-05 15:33
Airport Frankfurt Main Airport (EDDF)

Arrival

Time 2026-05-05 16:17
Airport Hamburg Helmut Schmidt Airport (EDDH)
Time Latitude Longitude Altitude Speed Heading
2026-05-05 15:14 50.03867 8.54787 352 ft 0 kts 160°
2026-05-05 15:26 50.03854 8.54795 354 ft 6 kts 159°
2026-05-05 15:27 50.03802 8.54834 356 ft 8 kts 136°
2026-05-05 15:27 50.03799 8.54900 348 ft 6 kts 76°
2026-05-05 15:27 50.03814 8.54968 352 ft 9 kts 70°
2026-05-05 15:27 50.03846 8.55099 351 ft 17 kts 69°
2026-05-05 15:28 50.03890 8.55283 354 ft 17 kts 70°
2026-05-05 15:28 50.03925 8.55430 354 ft 12 kts 70°
2026-05-05 15:28 50.03959 8.55574 353 ft 15 kts 69°
2026-05-05 15:28 50.03993 8.55713 349 ft 13 kts 70°
2026-05-05 15:29 50.04039 8.55905 351 ft 25 kts 69°
2026-05-05 15:29 50.04104 8.56178 357 ft 27 kts 69°
2026-05-05 15:29 50.04167 8.56445 355 ft 26 kts 69°
2026-05-05 15:29 50.04228 8.56701 363 ft 24 kts 70°
2026-05-05 15:30 50.04283 8.56931 359 ft 20 kts 70°
2026-05-05 15:30 50.04324 8.57100 366 ft 13 kts 70°
2026-05-05 15:30 50.04358 8.57244 365 ft 20 kts 71°
2026-05-05 15:30 50.04416 8.57491 363 ft 25 kts 71°
2026-05-05 15:31 50.04394 8.57646 368 ft 14 kts 144°
2026-05-05 15:31 50.04338 8.57686 362 ft 8 kts 158°
2026-05-05 15:31 50.04302 8.57703 362 ft 4 kts 166°
2026-05-05 15:31 50.04270 8.57684 365 ft 6 kts 238°
2026-05-05 15:32 50.04263 8.57651 362 ft 0 kts 251°
2026-05-05 15:32 50.04262 8.57644 362 ft 5 kts 251°
2026-05-05 15:32 50.04166 8.57240 368 ft 77 kts 250°
2026-05-05 15:33 50.03901 8.56138 356 ft 137 kts 250°
2026-05-05 15:33 50.03550 8.54659 846 ft 145 kts 249°
2026-05-05 15:33 50.03200 8.53174 1543 ft 148 kts 249°
2026-05-05 15:33 50.02829 8.51598 2042 ft 164 kts 249°
2026-05-05 15:34 50.02284 8.49949 2478 ft 182 kts 231°
2026-05-05 15:34 50.01292 8.48610 2944 ft 198 kts 208°
2026-05-05 15:34 49.99955 8.47952 3541 ft 207 kts 189°
2026-05-05 15:34 49.98530 8.47657 4280 ft 206 kts 189°
2026-05-05 15:35 49.97113 8.47348 5050 ft 206 kts 189°
2026-05-05 15:35 49.95701 8.46938 5699 ft 210 kts 197°
2026-05-05 15:35 49.94220 8.46264 6014 ft 235 kts 197°
2026-05-05 15:35 49.92628 8.45458 6692 ft 244 kts 205°
2026-05-05 15:36 49.91288 8.43785 7450 ft 252 kts 233°
2026-05-05 15:36 49.90621 8.41271 8368 ft 258 kts 261°
2026-05-05 15:36 49.90823 8.38491 9197 ft 268 kts 291°
2026-05-05 15:36 49.91940 8.36164 9986 ft 277 kts 323°
2026-05-05 15:37 49.93679 8.34813 10731 ft 285 kts 336°
2026-05-05 15:37 49.95581 8.33598 11090 ft 307 kts 337°
2026-05-05 15:37 49.97718 8.32720 11353 ft 331 kts 356°
2026-05-05 15:37 50.00031 8.33231 11574 ft 354 kts 21°
2026-05-05 15:38 50.02328 8.34867 11899 ft 371 kts 27°
2026-05-05 15:38 50.04663 8.36654 12519 ft 377 kts 27°
2026-05-05 15:38 50.07023 8.38489 13230 ft 381 kts 27°
2026-05-05 15:38 50.09408 8.40346 13929 ft 385 kts 27°
2026-05-05 15:39 50.11816 8.42211 14567 ft 389 kts 27°
2026-05-05 15:39 50.14254 8.44085 15207 ft 392 kts 27°
2026-05-05 15:39 50.16723 8.45964 15843 ft 396 kts 27°
2026-05-05 15:39 50.19210 8.47853 16473 ft 400 kts 27°
2026-05-05 15:40 50.21716 8.49766 17092 ft 404 kts 27°
2026-05-05 15:40 50.24259 8.51721 17727 ft 408 kts 27°
2026-05-05 15:40 50.26824 8.53694 18312 ft 412 kts 27°
2026-05-05 15:40 50.29408 8.55688 18831 ft 416 kts 27°
2026-05-05 15:41 50.32017 8.57699 19356 ft 420 kts 27°
2026-05-05 15:41 50.34657 8.59733 19879 ft 424 kts 27°
2026-05-05 15:41 50.37316 8.61780 20410 ft 428 kts 27°
2026-05-05 15:41 50.39999 8.63850 20937 ft 433 kts 27°
2026-05-05 15:42 50.42714 8.65952 21464 ft 436 kts 27°
2026-05-05 15:42 50.45447 8.68074 21930 ft 440 kts 27°
2026-05-05 15:42 50.48204 8.70214 22391 ft 443 kts 27°
2026-05-05 15:42 50.50975 8.72368 22832 ft 447 kts 27°
2026-05-05 15:43 50.53771 8.74545 23260 ft 450 kts 27°
2026-05-05 15:43 50.56585 8.76741 23636 ft 453 kts 27°
2026-05-05 15:43 50.59416 8.78952 23992 ft 456 kts 27°
2026-05-05 15:43 50.62263 8.81177 24356 ft 459 kts 27°
2026-05-05 15:44 50.65127 8.83418 24705 ft 461 kts 27°
2026-05-05 15:44 50.68012 8.85681 25047 ft 464 kts 27°
2026-05-05 15:44 50.70912 8.87960 25387 ft 467 kts 27°
2026-05-05 15:44 50.73831 8.90250 25720 ft 469 kts 27°
2026-05-05 15:45 50.76724 8.92520 26038 ft 472 kts 27°
2026-05-05 15:45 50.79668 8.94832 26353 ft 474 kts 27°
2026-05-05 15:45 50.82632 8.97165 26652 ft 477 kts 27°
2026-05-05 15:45 50.85604 8.99516 26954 ft 479 kts 27°
2026-05-05 15:46 50.88597 9.01887 27252 ft 482 kts 27°
2026-05-05 15:46 50.91601 9.04269 27530 ft 484 kts 27°
2026-05-05 15:46 50.94623 9.06668 27918 ft 487 kts 27°
2026-05-05 15:46 50.97663 9.09089 28321 ft 491 kts 27°
2026-05-05 15:47 51.00722 9.11530 28644 ft 494 kts 27°
2026-05-05 15:47 51.02758 9.13155 28845 ft 495 kts 27°
2026-05-05 15:47 51.06873 9.16438 29358 ft 494 kts 27°
2026-05-05 15:47 51.09944 9.18890 29674 ft 494 kts 27°
2026-05-05 15:48 51.13020 9.21353 29963 ft 494 kts 27°
2026-05-05 15:48 51.16092 9.23815 30225 ft 494 kts 27°
2026-05-05 15:48 51.19161 9.26275 30487 ft 494 kts 27°
2026-05-05 15:48 51.22226 9.28737 30801 ft 494 kts 26°
2026-05-05 15:49 51.25296 9.31211 31210 ft 494 kts 27°
2026-05-05 15:49 51.28399 9.33557 31576 ft 493 kts 21°
2026-05-05 15:49 51.31650 9.35253 31931 ft 492 kts 12°
2026-05-05 15:49 51.34999 9.36435 32294 ft 492 kts 11°
2026-05-05 15:50 51.38297 9.37574 32609 ft 491 kts 11°
2026-05-05 15:50 51.41688 9.38749 32805 ft 492 kts 11°
2026-05-05 15:50 51.45032 9.39913 32844 ft 493 kts 11°
2026-05-05 15:51 51.51730 9.42267 32839 ft 493 kts 11°
2026-05-05 15:51 51.58386 9.44613 32837 ft 492 kts 10°
2026-05-05 15:52 51.65073 9.46966 32835 ft 492 kts 10°
2026-05-05 15:52 51.71768 9.49326 32833 ft 492 kts 10°
2026-05-05 15:53 51.78452 9.51697 32842 ft 492 kts 10°
2026-05-05 15:53 51.84975 9.55017 32842 ft 495 kts 24°
2026-05-05 15:54 51.91111 9.60080 32843 ft 495 kts 26°
2026-05-05 15:54 51.97252 9.65156 32845 ft 495 kts 26°
2026-05-05 15:54 52.00379 9.67451 32849 ft 493 kts 15°
2026-05-05 15:55 52.03696 9.68735 32845 ft 489 kts
2026-05-05 15:55 52.10379 9.70903 32843 ft 490 kts
2026-05-05 15:56 52.17061 9.73049 32864 ft 490 kts
2026-05-05 15:56 52.20412 9.74126 32655 ft 491 kts
2026-05-05 15:56 52.23756 9.75207 32126 ft 490 kts
2026-05-05 15:56 52.27099 9.76292 31609 ft 489 kts
2026-05-05 15:57 52.30429 9.77373 31107 ft 488 kts
2026-05-05 15:57 52.33759 9.78456 30611 ft 485 kts
2026-05-05 15:57 52.37036 9.79530 30123 ft 476 kts
2026-05-05 15:57 52.40261 9.80591 29583 ft 468 kts
2026-05-05 15:58 52.43438 9.81362 28949 ft 457 kts 358°
2026-05-05 15:58 52.46553 9.80935 28224 ft 439 kts 344°
2026-05-05 15:58 52.49497 9.79922 27295 ft 428 kts 344°
2026-05-05 15:58 52.52385 9.78919 26334 ft 421 kts 344°
2026-05-05 15:59 52.55227 9.77925 25386 ft 415 kts 345°
2026-05-05 15:59 52.58033 9.76942 24466 ft 409 kts 345°
2026-05-05 15:59 52.60799 9.75974 23601 ft 404 kts 345°
2026-05-05 15:59 52.63526 9.75021 22631 ft 399 kts 346°
2026-05-05 16:00 52.65317 9.74396 22023 ft 395 kts 346°
2026-05-05 16:00 52.67984 9.73466 21139 ft 389 kts 346°
2026-05-05 16:00 52.70612 9.72549 20260 ft 383 kts 346°
2026-05-05 16:00 52.74034 9.71349 19161 ft 376 kts 346°
2026-05-05 16:01 52.75749 9.70745 18606 ft 372 kts 346°
2026-05-05 16:01 52.78269 9.69853 17746 ft 368 kts 346°
2026-05-05 16:01 52.80765 9.68970 17021 ft 366 kts 346°
2026-05-05 16:01 52.83245 9.68093 16368 ft 365 kts 346°
2026-05-05 16:02 52.85735 9.67211 15788 ft 366 kts 346°
2026-05-05 16:02 52.88194 9.66343 15202 ft 354 kts 346°
2026-05-05 16:02 52.90560 9.65511 14638 ft 342 kts 346°
2026-05-05 16:02 52.92855 9.64704 14096 ft 332 kts 346°
2026-05-05 16:03 52.95084 9.63916 13538 ft 323 kts 346°
2026-05-05 16:03 52.97244 9.63083 12922 ft 314 kts 342°
2026-05-05 16:03 52.99315 9.62065 12331 ft 307 kts 340°
2026-05-05 16:03 53.01331 9.61009 11739 ft 301 kts 340°
2026-05-05 16:04 53.03279 9.59960 11173 ft 296 kts 340°
2026-05-05 16:04 53.05236 9.58898 10709 ft 297 kts 340°
2026-05-05 16:04 53.07208 9.57830 10279 ft 299 kts 340°
2026-05-05 16:04 53.09196 9.56760 9847 ft 302 kts 340°
2026-05-05 16:05 53.11191 9.55689 9370 ft 299 kts 340°
2026-05-05 16:05 53.13152 9.54640 9006 ft 292 kts 340°
2026-05-05 16:05 53.15064 9.53620 8746 ft 286 kts 340°
2026-05-05 16:05 53.16950 9.52616 8488 ft 283 kts 340°
2026-05-05 16:06 53.18824 9.51621 8229 ft 282 kts 340°
2026-05-05 16:06 53.20688 9.50628 7969 ft 280 kts 340°
2026-05-05 16:06 53.22543 9.49639 7726 ft 279 kts 340°
2026-05-05 16:06 53.24392 9.48651 7471 ft 278 kts 340°
2026-05-05 16:07 53.26233 9.47666 7226 ft 277 kts 341°
2026-05-05 16:07 53.28066 9.46682 6976 ft 276 kts 341°
2026-05-05 16:07 53.29888 9.45703 6741 ft 275 kts 341°
2026-05-05 16:07 53.31702 9.44729 6492 ft 274 kts 342°
2026-05-05 16:08 53.33579 9.44264 6243 ft 274 kts
2026-05-05 16:08 53.35426 9.44957 5985 ft 274 kts 23°
2026-05-05 16:08 53.36997 9.46707 5725 ft 270 kts 44°
2026-05-05 16:08 53.38199 9.49018 5467 ft 254 kts 49°
2026-05-05 16:09 53.39284 9.51181 5217 ft 238 kts 49°
2026-05-05 16:09 53.40331 9.53273 4964 ft 225 kts 49°
2026-05-05 16:09 53.41299 9.55204 4713 ft 214 kts 49°
2026-05-05 16:09 53.41840 9.56305 4569 ft 208 kts 50°
2026-05-05 16:10 53.42741 9.58113 4385 ft 196 kts 49°
2026-05-05 16:10 53.43601 9.59829 4252 ft 190 kts 49°
2026-05-05 16:10 53.44449 9.61516 4132 ft 188 kts 49°
2026-05-05 16:10 53.45287 9.63186 4043 ft 187 kts 49°
2026-05-05 16:11 53.46119 9.64846 4003 ft 185 kts 49°
2026-05-05 16:11 53.48609 9.69817 4011 ft 185 kts 49°
2026-05-05 16:12 53.49437 9.71472 3884 ft 183 kts 49°
2026-05-05 16:12 53.51009 9.74618 3457 ft 170 kts 49°
2026-05-05 16:13 53.53223 9.79054 2794 ft 160 kts 49°
2026-05-05 16:13 53.53928 9.80469 2573 ft 156 kts 49°
2026-05-05 16:13 53.54610 9.81840 2358 ft 148 kts 49°
2026-05-05 16:14 53.55842 9.84315 1995 ft 133 kts 49°
2026-05-05 16:14 53.56999 9.86641 1617 ft 123 kts 50°
2026-05-05 16:15 53.58155 9.88985 1306 ft 133 kts 50°
2026-05-05 16:15 53.59298 9.91286 840 ft 127 kts 51°
2026-05-05 16:16 53.60493 9.93664 495 ft 133 kts 49°
2026-05-05 16:16 53.61645 9.95997 173 ft 129 kts 50°
2026-05-05 16:17 53.62657 9.98055 49 ft 55 kts 50°
2026-05-05 16:17 53.62850 9.98444 50 ft 37 kts 50°
2026-05-05 16:18 53.63086 9.98988 48 ft 23 kts 80°
2026-05-05 16:18 53.63088 9.99203 50 ft 14 kts 99°
2026-05-05 16:18 53.63114 9.99441 50 ft 12 kts 59°
2026-05-05 16:19 53.63170 9.99574 49 ft 15 kts 49°
2026-05-05 16:19 53.63218 9.99663 50 ft 4 kts 47°
2026-05-05 16:19 53.63218 9.99664 50 ft 0 kts 47°
2026-05-05 16:20 53.63345 9.99898 50 ft 18 kts 49°
2026-05-05 16:20 53.63394 10.00165 51 ft 13 kts 153°
2026-05-05 16:21 53.63253 10.00243 51 ft 10 kts 176°
2026-05-05 16:22 53.63206 10.00334 51 ft 4 kts 82°
2026-05-05 16:22 53.63208 10.00363 51 ft 0 kts 85°